Challis, ID

11:55 PM MST on February 26, 2017 (GMT -0700)
Challis

Weather History for KLLJ - September, 2013

Change the Weather History Date:

Monday, September 30, 2013

  Actual Average Record
Temperature  
Mean Temperature 44 °F 50 °F  
Max Temperature 55 °F 67 °F 86 °F (2011)
Min Temperature 33 °F 35 °F 24 °F (2007)
Degree Days  
Heating Degree Days 21 14  
Month to date heating degree days 218 277  
Since 1 July heating degree days 224 349  
Cooling Degree Days 0 0  
Month to date cooling degree days 30 6  
Year to date cooling degree days 420 248  
Moisture  
Dew Point 34 °F    
Average Humidity 58    
Maximum Humidity 89    
Minimum Humidity 26    
Precipitation  
Precipitation 0.24 in 0.02 in 0.28 in (1983)
Month to date precipitation 1.69 0.74  
Year to date precipitation 4.20 8.13  
Sea Level Pressure  
Sea Level Pressure 29.78 in    
Wind  
Wind Speed 7 mph (West)    
Max Wind Speed 29 mph    
Max Gust Speed 40 mph    
Visibility 9 miles    
Events Rain    
T = Trace of Precipitation, MM = Missing Value Source: NWS Daily Summary

Daily Weather History Graph

Daily Weather History Graph

Search for Another Location

Airport or City:

Trip Planner

Search our weather history database for the weather conditions in past years. The results will help you decide how hot, cold, wet, or windy it might be!

Date:

Astronomy

Sep. 30, 2013 Rise Set
Actual Time 7:33 AM MDT 7:18 PM MDT
Civil Twilight 7:04 AM MDT 7:47 PM MDT
Nautical Twilight 6:31 AM MDT 8:21 PM MDT
Astronomical Twilight 5:56 AM MDT 8:55 PM MDT
Moon 3:05 AM MDT (9/30) 4:59 PM MDT (9/30)
Length of Visible Light 12h 42m
Length of Day
11h 44m
Waning Crescent, 18% of the Moon is Illuminated
Sep 30
Waning Crescent
Oct 4
New
Oct 11
First Quarter
Oct 18
Full
Oct 26
Last Quarter

Hourly Weather History & Observations

Time (MDT) Temp. Windchill Dew Point Humidity Pressure Visibility Wind Dir Wind Speed Gust Speed Precip Events Conditions
1:55 AM 45.0 °F - 41.0 °F 86% 29.66 in 10.0 mi Calm Calm - 0.00 in   Mostly Cloudy
2:55 AM 44.1 °F 40.8 °F 39.9 °F 85% 29.65 in 10.0 mi NNW 5.8 mph - 0.00 in Rain Light Rain
3:55 AM 45.0 °F 43.5 °F 41.0 °F 86% 29.64 in 10.0 mi North 3.5 mph - 0.03 in Rain Light Rain
4:55 AM 45.0 °F 43.5 °F 41.0 °F 86% 29.64 in 10.0 mi South 3.5 mph - 0.02 in Rain Light Rain
5:55 AM 44.1 °F - 41.0 °F 89% 29.64 in 10.0 mi Calm Calm - 0.02 in Rain Light Rain
6:55 AM 44.1 °F 42.5 °F 41.0 °F 89% 29.62 in 10.0 mi East 3.5 mph - 0.01 in   Overcast
7:55 AM 45.0 °F 42.6 °F 41.0 °F 86% 29.60 in 10.0 mi NNE 4.6 mph - 0.01 in Rain Light Rain
8:55 AM 46.9 °F - 43.0 °F 86% 29.60 in 10.0 mi Calm Calm - 0.00 in Rain Light Rain
9:55 AM 50.0 °F - 45.0 °F 83% 29.66 in 8.0 mi West 9.2 mph - 0.00 in Rain Light Rain
10:17 AM 46.4 °F 39.0 °F 39.2 °F 76% 29.78 in 1.8 mi NW 19.6 mph 32.2 mph 0.09 in Rain Heavy Rain
10:28 AM 46.4 °F 42.9 °F 39.2 °F 76% 29.77 in 3.0 mi NW 6.9 mph - 0.14 in Rain Rain
10:55 AM 48.0 °F - 37.0 °F 66% 29.75 in 8.0 mi WNW 18.4 mph 36.8 mph 0.14 in Rain Light Rain
11:55 AM 50.0 °F - 36.0 °F 59% 29.78 in 10.0 mi West 12.7 mph 21.9 mph 0.01 in Rain Light Rain
12:55 PM 51.1 °F - 35.1 °F 54% 29.79 in 10.0 mi SSW 6.9 mph - 0.00 in   Mostly Cloudy
1:55 PM 54.0 °F - 30.0 °F 40% 29.79 in 10.0 mi WSW 18.4 mph 29.9 mph 0.00 in   Clear
2:55 PM 55.0 °F - 24.1 °F 30% 29.78 in 10.0 mi West 18.4 mph 25.3 mph N/A   Clear
3:55 PM 55.0 °F - 21.9 °F 28% 29.81 in 10.0 mi West 17.3 mph 39.1 mph N/A   Clear
4:55 PM 54.0 °F - 21.0 °F 28% 29.84 in 10.0 mi WSW 11.5 mph 28.8 mph N/A   Clear
5:55 PM 52.0 °F - 21.9 °F 31% 29.88 in 10.0 mi West 12.7 mph 24.2 mph N/A   Partly Cloudy
6:55 PM 48.9 °F - 21.9 °F 35% 29.91 in 10.0 mi Calm Calm - N/A   Clear
7:55 PM 44.1 °F 41.5 °F 28.0 °F 53% 29.94 in 10.0 mi SW 4.6 mph - N/A   Clear
8:55 PM 43.0 °F 38.8 °F 28.0 °F 56% 29.95 in 10.0 mi SW 6.9 mph - N/A   Clear
9:55 PM 39.0 °F - 28.0 °F 65% 29.96 in 10.0 mi Calm Calm - N/A   Clear
10:55 PM 35.1 °F - 27.0 °F 72% 30.00 in 10.0 mi Calm Calm - N/A   Clear
11:55 PM 36.0 °F - 27.0 °F 70% 29.99 in 10.0 mi Calm Calm - N/A   Clear